Location: Tierra del Sol
(32.6128°N, 116.3319°W)
Time: 07:02:24
(UTC-08:00)

Vanguard 1 Rocket - All Passes

Search period start: 16 December 2017 00:00
Search period end: 26 December 2017 00:00
Orbit: 656 x 4222 km, 34.3° (Epoch: 15 December)

Date Brightness Start Highest point End Pass type
(mag) Time Alt. Az. Time Alt. Az. Time Alt. Az.
16 Dec - 00:07:57 10° W 00:27:03 32° SW 00:47:15 10° S visible
16 Dec - 13:14:04 10° S 13:17:49 17° SE 13:22:49 10° E daylight
16 Dec - 15:34:48 10° WSW 15:41:58 72° SSE 15:56:24 10° ENE daylight
16 Dec - 17:59:14 10° W 18:10:02 84° N 18:31:40 10° E visible
16 Dec - 20:25:06 10° WNW 20:40:57 78° SSW 21:06:58 10° ESE visible
16 Dec - 22:53:25 10° WNW 23:12:47 45° SW 23:36:16 10° SSE visible
17 Dec - 01:32:52 10° WSW 01:43:16 14° SW 01:53:35 10° SSW visible
17 Dec - 14:25:03 10° SW 14:30:54 47° SE 14:41:27 10° ENE daylight
17 Dec - 16:48:31 10° W 16:57:12 86° N 17:15:09 10° E visible
17 Dec - 19:13:42 10° WNW 19:26:48 88° SSW 19:51:11 10° ESE visible
17 Dec - 21:40:28 10° WNW 21:58:17 58° SSW 22:23:34 10° SE visible
18 Dec - 00:12:34 10° W 00:29:27 25° SW 00:47:37 10° S visible
18 Dec - 13:16:09 10° S 13:20:32 24° SE 13:26:54 10° E daylight
18 Dec - 15:38:09 10° WSW 15:45:11 82° SSE 15:59:25 10° ENE daylight
18 Dec - 18:02:42 10° W 18:13:20 85° N 18:34:41 10° E visible
18 Dec - 20:28:28 10° WNW 20:43:53 71° SSW 21:09:22 10° SE visible
18 Dec - 22:57:14 10° W 23:15:19 37° SW 23:37:27 10° SSE visible
19 Dec - 14:28:08 10° SW 14:33:56 59° SSE 14:44:38 10° ENE daylight
19 Dec - 16:52:00 10° W 17:00:33 83° N 17:18:13 10° E visible
19 Dec - 19:17:06 10° WNW 19:29:56 82° SSW 19:53:55 10° ESE visible
19 Dec - 21:43:58 10° WNW 22:00:59 49° SSW 22:25:16 10° SSE visible
20 Dec - 00:18:14 10° W 00:32:02 19° SW 00:46:53 10° S visible
20 Dec - 13:18:44 10° SSW 13:23:22 32° SE 13:30:33 10° E daylight
20 Dec - 15:41:34 10° WSW 15:48:30 89° NNW 16:02:28 10° E daylight
20 Dec - 18:06:10 10° W 18:16:36 88° N 18:37:39 10° ESE visible
20 Dec - 20:31:52 10° WNW 20:46:47 62° SSW 21:11:30 10° SE visible
20 Dec - 23:01:28 10° W 23:17:55 30° SW 23:38:06 10° S visible
21 Dec - 12:10:42 10° SSE 12:13:12 14° SE 12:16:08 10° ESE daylight
21 Dec - 14:31:24 10° WSW 14:37:07 72° SSE 14:47:45 10° ENE daylight
21 Dec - 16:55:30 10° W 17:03:56 83° N 17:21:17 10° E visible
21 Dec - 19:20:30 10° WNW 19:33:00 75° SSW 19:56:26 10° ESE visible
21 Dec - 21:47:41 10° W 22:03:44 41° SW 22:26:34 10° SSE visible
22 Dec - 00:26:29 10° WSW 00:34:50 13° SW 00:43:39 10° SSW visible
22 Dec - 13:21:37 10° SW 13:26:23 43° SSE 13:33:58 10° E daylight
22 Dec - 15:45:04 10° W 15:51:53 84° N 16:05:34 10° E daylight
22 Dec - 18:09:36 10° WNW 18:19:50 86° SSW 18:40:30 10° ESE visible
22 Dec - 20:35:22 10° W 20:49:42 53° SSW 21:13:18 10° SE visible
22 Dec - 23:06:25 10° W 23:20:41 23° SW 23:37:56 10° S visible
23 Dec - 12:12:35 10° S 12:16:05 21° SE 12:20:30 10° E daylight
23 Dec - 14:34:47 10° WSW 14:40:25 84° SSE 14:50:53 10° ENE daylight
23 Dec - 16:58:59 10° W 17:07:17 85° N 17:24:21 10° E visible
23 Dec - 19:23:56 10° WNW 19:36:04 66° SSW 19:58:43 10° SE visible
23 Dec - 21:51:42 10° W 22:06:35 33° SW 22:27:23 10° SSE visible
24 Dec - 13:24:45 10° SW 13:29:32 57° SSE 13:37:16 10° ENE daylight
24 Dec - 15:48:34 10° W 15:55:17 81° N 16:08:42 10° E daylight
24 Dec - 18:13:02 10° WNW 18:23:02 79° SSW 18:43:12 10° ESE visible
24 Dec - 20:39:01 10° W 20:52:40 44° SSW 21:14:45 10° SSE visible
24 Dec - 23:12:42 10° WSW 23:23:39 16° SW 23:36:21 10° SSW visible
25 Dec - 12:15:09 10° SSW 12:19:06 30° SE 12:24:18 10° E daylight
25 Dec - 14:38:15 10° W 14:43:48 86° N 14:54:03 10° E daylight
25 Dec - 17:02:28 10° W 17:10:36 89° N 17:27:21 10° ESE visible
25 Dec - 19:27:26 10° W 19:39:09 56° SSW 20:00:42 10° SE visible
25 Dec - 21:56:15 10° W 22:09:33 26° SW 22:27:33 10° S visible
